When you browse on this site, cookies collect data to enhance your experience and personalize the content and advertising you see.
Visit our Privacy Policy to learn more. By continuing to use the site, you agree to this use of cookies and data.
  • In Deutschland
  • Länderverzeichnis
  • Für 7 Tage
  • Wassertemperatur
  • Wetterkarte
  • Widgets
  • user-avatar
    Anmelden

    Stündliche Wetter Ajman

    Heute, 29 März, Sonntag

    Zeit Temperatur Niederschläge Wind Luftdruck Luftfeuchtigkeit
    00:00 +28°C° 0.1 mm 7 m/S 758 mmHg 41%
    01:00 +28°C° 0.1 mm 7 m/S 758 mmHg 42%
    02:00 +28°C° 0 mm 6 m/S 758 mmHg 41%
    03:00 +27°C° 0 mm 5 m/S 757 mmHg 41%
    04:00 +27°C° 0 mm 4 m/S 757 mmHg 40%
    05:00 +27°C° 0 mm 5 m/S 757 mmHg 42%
    06:00 +27°C° 0 mm 6 m/S 757 mmHg 44%
    07:00 +27°C° 0 mm 7 m/S 758 mmHg 46%
    08:00 +28°C° 0.1 mm 7 m/S 758 mmHg 43%
    09:00 +29°C° 0.1 mm 7 m/S 758 mmHg 39%
    10:00 +29°C° 0.1 mm 7 m/S 759 mmHg 36%
    11:00 +32°C° 0 mm 7 m/S 758 mmHg 31%
    12:00 +34°C° 0 mm 8 m/S 758 mmHg 26%
    13:00 +37°C° 0 mm 8 m/S 757 mmHg 21%
    14:00 +37°C° 0 mm 8 m/S 756 mmHg 21%
    15:00 +37°C° 0 mm 8 m/S 756 mmHg 22%
    16:00 +36°C° 0 mm 7 m/S 755 mmHg 23%
    17:00 +34°C° 0 mm 7 m/S 755 mmHg 29%
    18:00 +33°C° 0 mm 8 m/S 755 mmHg 35%
    19:00 +31°C° 0 mm 8 m/S 755 mmHg 40%
    20:00 +31°C° 0 mm 8 m/S 755 mmHg 44%
    21:00 +29°C° 0 mm 8 m/S 755 mmHg 48%
    22:00 +28°C° 0 mm 8 m/S 754 mmHg 52%
    23:00 +28°C° 0.1 mm 8 m/S 754 mmHg 52%

    Morgen, 30 März, Montag

    Zeit Temperatur Niederschläge Wind Luftdruck Luftfeuchtigkeit
    00:00 +28°C° 0.1 mm 8 m/S 754 mmHg 53%
    01:00 +27°C° 0.1 mm 9 m/S 754 mmHg 53%
    02:00 +27°C° 0.2 mm 8 m/S 754 mmHg 52%
    03:00 +27°C° 0.2 mm 7 m/S 754 mmHg 50%
    04:00 +28°C° 0.2 mm 6 m/S 753 mmHg 49%
    05:00 +27°C° 0.2 mm 6 m/S 754 mmHg 52%
    06:00 +27°C° 0.2 mm 6 m/S 755 mmHg 54%
    07:00 +27°C° 0.2 mm 6 m/S 756 mmHg 57%
    08:00 +28°C° 0.1 mm 7 m/S 756 mmHg 56%
    09:00 +29°C° 0.1 mm 9 m/S 757 mmHg 55%
    10:00 +31°C° 0.1 mm 10 m/S 757 mmHg 55%
    11:00 +31°C° 0 mm 10 m/S 757 mmHg 54%
    12:00 +31°C° 0 mm 9 m/S 757 mmHg 54%
    13:00 +31°C° 0 mm 9 m/S 757 mmHg 54%
    14:00 +29°C° 0 mm 8 m/S 757 mmHg 55%
    15:00 +28°C° 0 mm 7 m/S 756 mmHg 57%
    16:00 +27°C° 0 mm 6 m/S 756 mmHg 59%
    17:00 +27°C° 0 mm 6 m/S 756 mmHg 59%
    18:00 +26°C° 0 mm 6 m/S 757 mmHg 59%
    19:00 +26°C° 0 mm 5 m/S 757 mmHg 59%
    20:00 +25°C° 0 mm 5 m/S 757 mmHg 59%
    21:00 +25°C° 0 mm 5 m/S 758 mmHg 60%
    22:00 +23°C° 0 mm 5 m/S 758 mmHg 60%
    23:00 +23°C° 0 mm 5 m/S 758 mmHg 62%

    übermorgen, 31 März, Dienstag

    Zeit Temperatur Niederschläge Wind Luftdruck Luftfeuchtigkeit
    00:00 +23°C° 0 mm 5 m/S 758 mmHg 64%
    01:00 +23°C° 0 mm 5 m/S 758 mmHg 66%
    02:00 +22°C° 0 mm 5 m/S 758 mmHg 65%
    03:00 +22°C° 0 mm 5 m/S 758 mmHg 65%
    04:00 +22°C° 0 mm 4 m/S 758 mmHg 65%
    05:00 +22°C° 0 mm 4 m/S 758 mmHg 63%
    06:00 +22°C° 0 mm 4 m/S 759 mmHg 61%
    07:00 +22°C° 0 mm 4 m/S 759 mmHg 59%
    08:00 +25°C° 0 mm 5 m/S 759 mmHg 51%
    09:00 +26°C° 0 mm 5 m/S 760 mmHg 42%
    10:00 +28°C° 0 mm 6 m/S 760 mmHg 34%
    11:00 +28°C° 0 mm 6 m/S 760 mmHg 34%
    12:00 +29°C° 0 mm 6 m/S 760 mmHg 33%
    13:00 +29°C° 0 mm 7 m/S 759 mmHg 33%
    14:00 +29°C° 0 mm 7 m/S 759 mmHg 34%
    15:00 +28°C° 0 mm 7 m/S 758 mmHg 36%
    16:00 +28°C° 0 mm 7 m/S 758 mmHg 38%
    17:00 +27°C° 0 mm 7 m/S 758 mmHg 42%
    18:00 +26°C° 0 mm 6 m/S 759 mmHg 47%
    19:00 +26°C° 0 mm 6 m/S 759 mmHg 52%
    20:00 +25°C° 0 mm 5 m/S 759 mmHg 53%
    21:00 +25°C° 0 mm 5 m/S 759 mmHg 55%
    22:00 +25°C° 0 mm 5 m/S 760 mmHg 57%
    23:00 +25°C° 0 mm 5 m/S 759 mmHg 59%

    1 April, Mittwoch

    Zeit Temperatur Niederschläge Wind Luftdruck Luftfeuchtigkeit
    00:00 +23°C° 0 mm 4 m/S 759 mmHg 61%
    01:00 +23°C° 0 mm 4 m/S 759 mmHg 63%
    02:00 +23°C° 0 mm 4 m/S 759 mmHg 65%
    03:00 +22°C° 0 mm 4 m/S 759 mmHg 67%
    04:00 +22°C° 0 mm 3 m/S 758 mmHg 69%
    05:00 +22°C° 0 mm 3 m/S 759 mmHg 69%
    06:00 +22°C° 0 mm 3 m/S 759 mmHg 69%
    07:00 +22°C° 0 mm 3 m/S 759 mmHg 69%
    08:00 +23°C° 0 mm 4 m/S 760 mmHg 62%
    09:00 +26°C° 0 mm 4 m/S 760 mmHg 55%
    10:00 +27°C° 0 mm 4 m/S 760 mmHg 48%
    11:00 +28°C° 0 mm 3 m/S 760 mmHg 41%
    12:00 +30°C° 0 mm 3 m/S 760 mmHg 35%
    13:00 +31°C° 0 mm 3 m/S 760 mmHg 28%
    14:00 +31°C° 0 mm 3 m/S 759 mmHg 32%
    15:00 +30°C° 0 mm 4 m/S 759 mmHg 37%
    16:00 +30°C° 0 mm 4 m/S 758 mmHg 41%
    17:00 +29°C° 0 mm 3 m/S 758 mmHg 44%
    18:00 +28°C° 0 mm 2 m/S 758 mmHg 47%
    19:00 +27°C° 0 mm 2 m/S 758 mmHg 50%
    20:00 +27°C° 0 mm 2 m/S 759 mmHg 50%
    21:00 +27°C° 0 mm 2 m/S 759 mmHg 50%
    22:00 +27°C° 0 mm 1 m/S 759 mmHg 51%
    23:00 +27°C° 0 mm 1 m/S 759 mmHg 51%

    2 April, Donnerstag

    Zeit Temperatur Niederschläge Wind Luftdruck Luftfeuchtigkeit
    00:00 +26°C° 0 mm 1 m/S 758 mmHg 52%
    01:00 +26°C° 0 mm 1 m/S 758 mmHg 53%
    02:00 +26°C° 0 mm 1 m/S 758 mmHg 52%
    03:00 +26°C° 0 mm 1 m/S 758 mmHg 52%
    04:00 +25°C° 0 mm 2 m/S 757 mmHg 51%
    05:00 +25°C° 0 mm 1 m/S 758 mmHg 50%
    06:00 +25°C° 0 mm 1 m/S 758 mmHg 49%
    07:00 +25°C° 0 mm 1 m/S 758 mmHg 48%
    08:00 +27°C° 0 mm 2 m/S 758 mmHg 39%
    09:00 +30°C° 0 mm 2 m/S 759 mmHg 30%
    10:00 +33°C° 0 mm 3 m/S 759 mmHg 22%
    11:00 +34°C° 0 mm 3 m/S 758 mmHg 18%
    12:00 +35°C° 0 mm 3 m/S 758 mmHg 15%
    13:00 +37°C° 0 mm 3 m/S 758 mmHg 12%
    14:00 +36°C° 0 mm 4 m/S 757 mmHg 15%
    15:00 +36°C° 0 mm 4 m/S 757 mmHg 18%
    16:00 +35°C° 0 mm 5 m/S 756 mmHg 21%
    17:00 +34°C° 0 mm 5 m/S 756 mmHg 24%
    18:00 +33°C° 0 mm 4 m/S 756 mmHg 26%
    19:00 +32°C° 0 mm 4 m/S 756 mmHg 29%
    20:00 +31°C° 0 mm 3 m/S 757 mmHg 29%
    21:00 +31°C° 0 mm 2 m/S 757 mmHg 29%
    22:00 +30°C° 0 mm 2 m/S 757 mmHg 29%
    23:00 +30°C° 0 mm 2 m/S 757 mmHg 29%

    3 April, Freitag

    Zeit Temperatur Niederschläge Wind Luftdruck Luftfeuchtigkeit
    00:00 +29°C° 0 mm 2 m/S 757 mmHg 28%
    01:00 +29°C° 0 mm 1 m/S 756 mmHg 28%
    02:00 +29°C° 0 mm 2 m/S 756 mmHg 28%
    03:00 +28°C° 0 mm 2 m/S 756 mmHg 27%
    04:00 +28°C° 0 mm 3 m/S 755 mmHg 27%
    05:00 +29°C° 0 mm 3 m/S 756 mmHg 25%
    06:00 +29°C° 0 mm 3 m/S 756 mmHg 23%
    07:00 +29°C° 0 mm 4 m/S 756 mmHg 22%
    08:00 +31°C° 0 mm 3 m/S 757 mmHg 20%
    09:00 +34°C° 0 mm 2 m/S 757 mmHg 18%
    10:00 +36°C° 0 mm 2 m/S 757 mmHg 16%
    11:00 +37°C° 0 mm 2 m/S 757 mmHg 15%
    12:00 +39°C° 0 mm 3 m/S 757 mmHg 14%
    13:00 +40°C° 0 mm 3 m/S 757 mmHg 13%
    14:00 +40°C° 0 mm 4 m/S 756 mmHg 14%
    15:00 +38°C° 0 mm 4 m/S 756 mmHg 16%
    16:00 +37°C° 0 mm 5 m/S 756 mmHg 17%
    17:00 +35°C° 0 mm 4 m/S 756 mmHg 22%
    18:00 +34°C° 0 mm 4 m/S 756 mmHg 26%
    19:00 +32°C° 0 mm 4 m/S 756 mmHg 30%
    20:00 +31°C° 0 mm 3 m/S 756 mmHg 33%
    21:00 +30°C° 0 mm 3 m/S 757 mmHg 35%
    22:00 +29°C° 0 mm 2 m/S 757 mmHg 38%
    23:00 +29°C° 0 mm 2 m/S 757 mmHg 40%
    Mehr zeigen